Hourly Weather Dinagepoor

Today, 4 July, Saturday

Time Temperature Precipitation Wind Pressure Humidity
00:00 +29°C° 0 mm 2 mps 749 mmHg 79%
01:00 +29°C° 0 mm 2 mps 748 mmHg 79%
02:00 +29°C° 0 mm 2 mps 748 mmHg 80%
03:00 +29°C° 0 mm 2 mps 747 mmHg 80%
04:00 +29°C° 0 mm 2 mps 747 mmHg 81%
05:00 +29°C° 0 mm 2 mps 747 mmHg 81%
06:00 +29°C° 0 mm 2 mps 748 mmHg 82%
07:00 +30°C° 0 mm 2 mps 748 mmHg 77%
08:00 +33°C° 0 mm 3 mps 748 mmHg 72%
09:00 +34°C° 0 mm 3 mps 748 mmHg 67%
10:00 +35°C° 0 mm 3 mps 748 mmHg 63%
11:00 +36°C° 0 mm 3 mps 748 mmHg 58%
12:00 +37°C° 0 mm 3 mps 748 mmHg 54%
13:00 +37°C° 0.4 mm 3 mps 747 mmHg 54%
14:00 +38°C° 0.4 mm 3 mps 746 mmHg 54%
15:00 +38°C° 0.4 mm 3 mps 746 mmHg 54%
16:00 +37°C° 0.2 mm 3 mps 745 mmHg 56%
17:00 +37°C° 0.2 mm 2 mps 745 mmHg 58%
18:00 +36°C° 0.2 mm 2 mps 745 mmHg 60%
19:00 +36°C° 0.1 mm 3 mps 746 mmHg 64%
20:00 +35°C° 0.1 mm 3 mps 746 mmHg 67%
21:00 +34°C° 0.1 mm 3 mps 747 mmHg 71%
22:00 +33°C° 0.8 mm 3 mps 747 mmHg 75%
23:00 +32°C° 0.8 mm 4 mps 747 mmHg 79%

Tomorrow, 5 July, Sunday

Time Temperature Precipitation Wind Pressure Humidity
00:00 +32°C° 0.8 mm 4 mps 747 mmHg 83%
01:00 +30°C° 0.6 mm 4 mps 747 mmHg 84%
02:00 +30°C° 0.6 mm 4 mps 746 mmHg 86%
03:00 +30°C° 0.6 mm 4 mps 746 mmHg 87%
04:00 +29°C° 0.1 mm 4 mps 746 mmHg 87%
05:00 +29°C° 0.1 mm 4 mps 746 mmHg 87%
06:00 +29°C° 0.1 mm 3 mps 746 mmHg 87%
07:00 +30°C° 0.2 mm 4 mps 746 mmHg 83%
08:00 +32°C° 0.2 mm 4 mps 746 mmHg 79%
09:00 +33°C° 0.2 mm 5 mps 746 mmHg 75%
10:00 +34°C° 0.6 mm 5 mps 746 mmHg 71%
11:00 +35°C° 0.6 mm 5 mps 746 mmHg 67%
12:00 +36°C° 0.6 mm 5 mps 746 mmHg 64%
13:00 +36°C° 0.6 mm 5 mps 745 mmHg 62%
14:00 +37°C° 0.6 mm 5 mps 745 mmHg 61%
15:00 +37°C° 0.6 mm 5 mps 744 mmHg 59%
16:00 +36°C° 2.7 mm 5 mps 744 mmHg 63%
17:00 +35°C° 2.7 mm 5 mps 745 mmHg 68%
18:00 +34°C° 2.7 mm 5 mps 745 mmHg 72%
19:00 +34°C° 0.5 mm 5 mps 745 mmHg 75%
20:00 +33°C° 0.5 mm 5 mps 746 mmHg 78%
21:00 +32°C° 0.5 mm 5 mps 746 mmHg 81%
22:00 +32°C° 0 mm 5 mps 746 mmHg 83%
23:00 +30°C° 0 mm 5 mps 746 mmHg 84%

Day after tomorrow, 6 July, Monday

Time Temperature Precipitation Wind Pressure Humidity
00:00 +30°C° 0 mm 5 mps 746 mmHg 86%
01:00 +30°C° 0.1 mm 4 mps 746 mmHg 87%
02:00 +29°C° 0.1 mm 4 mps 746 mmHg 87%
03:00 +29°C° 0.1 mm 4 mps 745 mmHg 88%
04:00 +29°C° 1 mm 5 mps 745 mmHg 88%
05:00 +29°C° 1 mm 5 mps 745 mmHg 89%
06:00 +29°C° 1 mm 6 mps 745 mmHg 89%
07:00 +29°C° 0.2 mm 6 mps 746 mmHg 86%
08:00 +30°C° 0.2 mm 6 mps 747 mmHg 84%
09:00 +30°C° 0.2 mm 6 mps 747 mmHg 81%
10:00 +30°C° 0.2 mm 7 mps 747 mmHg 81%
11:00 +30°C° 0.2 mm 7 mps 747 mmHg 80%
12:00 +32°C° 0.2 mm 7 mps 747 mmHg 80%
13:00 +32°C° 0.1 mm 7 mps 746 mmHg 78%
14:00 +32°C° 0.1 mm 7 mps 746 mmHg 77%
15:00 +32°C° 0.1 mm 6 mps 745 mmHg 76%
16:00 +33°C° 0 mm 6 mps 745 mmHg 75%
17:00 +33°C° 0 mm 6 mps 745 mmHg 75%
18:00 +33°C° 0 mm 6 mps 745 mmHg 75%
19:00 +32°C° 0.2 mm 5 mps 746 mmHg 78%
20:00 +32°C° 0.2 mm 5 mps 746 mmHg 81%
21:00 +30°C° 0.2 mm 4 mps 747 mmHg 83%
22:00 +30°C° 0.5 mm 4 mps 747 mmHg 85%
23:00 +30°C° 0.5 mm 4 mps 748 mmHg 86%

7 July, Tuesday

Time Temperature Precipitation Wind Pressure Humidity
00:00 +30°C° 0.5 mm 4 mps 748 mmHg 87%
01:00 +30°C° 2.3 mm 4 mps 748 mmHg 87%
02:00 +30°C° 2.3 mm 4 mps 747 mmHg 88%
03:00 +29°C° 2.3 mm 5 mps 747 mmHg 88%
04:00 +29°C° 0.9 mm 5 mps 747 mmHg 88%
05:00 +29°C° 0.9 mm 5 mps 747 mmHg 89%
06:00 +29°C° 0.9 mm 5 mps 748 mmHg 89%
07:00 +30°C° 0.9 mm 5 mps 748 mmHg 86%
08:00 +32°C° 0.9 mm 6 mps 749 mmHg 82%
09:00 +33°C° 0.9 mm 6 mps 749 mmHg 79%
10:00 +33°C° 1.4 mm 6 mps 749 mmHg 76%
11:00 +34°C° 1.4 mm 6 mps 749 mmHg 74%
12:00 +35°C° 1.4 mm 6 mps 748 mmHg 72%
13:00 +35°C° 0.2 mm 5 mps 748 mmHg 68%
14:00 +36°C° 0.2 mm 5 mps 747 mmHg 64%
15:00 +37°C° 0.2 mm 5 mps 747 mmHg 61%
16:00 +37°C° 0 mm 4 mps 747 mmHg 62%
17:00 +36°C° 0 mm 4 mps 747 mmHg 64%
18:00 +36°C° 0 mm 3 mps 746 mmHg 65%
19:00 +35°C° 0.9 mm 3 mps 747 mmHg 70%
20:00 +34°C° 0.9 mm 3 mps 748 mmHg 74%
21:00 +33°C° 0.9 mm 3 mps 748 mmHg 78%
22:00 +33°C° 3.5 mm 3 mps 748 mmHg 79%
23:00 +33°C° 3.5 mm 4 mps 748 mmHg 80%

8 July, Wednesday

Time Temperature Precipitation Wind Pressure Humidity
00:00 +32°C° 3.5 mm 4 mps 748 mmHg 81%
01:00 +31°C° 1.7 mm 3 mps 748 mmHg 83%
02:00 +31°C° 1.7 mm 3 mps 748 mmHg 85%
03:00 +30°C° 1.7 mm 2 mps 748 mmHg 88%
04:00 +30°C° 0.3 mm 2 mps 748 mmHg 88%
05:00 +30°C° 0.3 mm 3 mps 748 mmHg 88%
06:00 +30°C° 0.3 mm 3 mps 748 mmHg 88%
07:00 +31°C° 0.1 mm 2 mps 748 mmHg 83%
08:00 +32°C° 0.1 mm 2 mps 749 mmHg 79%
09:00 +34°C° 0.1 mm 2 mps 749 mmHg 74%
10:00 +35°C° 0.3 mm 2 mps 749 mmHg 70%
11:00 +36°C° 0.3 mm 2 mps 748 mmHg 66%
12:00 +37°C° 0.3 mm 2 mps 748 mmHg 62%
13:00 +37°C° 2.1 mm 2 mps 747 mmHg 62%
14:00 +37°C° 2.1 mm 2 mps 747 mmHg 62%
15:00 +37°C° 2.1 mm 2 mps 746 mmHg 62%
16:00 +36°C° 0.2 mm 2 mps 746 mmHg 64%
17:00 +36°C° 0.2 mm 2 mps 746 mmHg 66%
18:00 +35°C° 0.2 mm 1 mps 746 mmHg 67%
19:00 +34°C° 1.3 mm 1 mps 746 mmHg 71%
20:00 +34°C° 1.3 mm 2 mps 746 mmHg 75%
21:00 +32°C° 1.3 mm 2 mps 747 mmHg 79%
22:00 +32°C° 1.5 mm 2 mps 747 mmHg 79%
23:00 +32°C° 1.5 mm 2 mps 747 mmHg 79%

9 July, Thursday

Time Temperature Precipitation Wind Pressure Humidity
00:00 +32°C° 1.5 mm 2 mps 746 mmHg 80%
01:00 +31°C° 2.2 mm 3 mps 746 mmHg 81%
02:00 +31°C° 2.2 mm 3 mps 745 mmHg 82%
03:00 +32°C° 2.2 mm 4 mps 745 mmHg 83%
04:00 +30°C° 2 mm 4 mps 745 mmHg 85%
05:00 +30°C° 2 mm 4 mps 745 mmHg 87%
06:00 +29°C° 2 mm 4 mps 744 mmHg 89%
07:00 +29°C° 3.3 mm 4 mps 745 mmHg 90%
08:00 +29°C° 3.3 mm 3 mps 745 mmHg 91%
09:00 +29°C° 3.3 mm 3 mps 745 mmHg 92%
10:00 +29°C° 2.2 mm 3 mps 745 mmHg 92%
11:00 +29°C° 2.2 mm 4 mps 745 mmHg 91%
12:00 +29°C° 2.2 mm 4 mps 745 mmHg 91%
13:00 +29°C° 3.1 mm 4 mps 745 mmHg 92%
14:00 +29°C° 3.1 mm 3 mps 745 mmHg 92%
15:00 +29°C° 3.1 mm 2 mps 744 mmHg 93%
16:00 +29°C° 2.2 mm 2 mps 744 mmHg 93%
17:00 +29°C° 2.2 mm 2 mps 744 mmHg 93%
18:00 +29°C° 2.2 mm 2 mps 744 mmHg 92%
19:00 +29°C° 0.4 mm 2 mps 745 mmHg 92%
20:00 +29°C° 0.4 mm 2 mps 745 mmHg 91%
21:00 +29°C° 0.4 mm 2 mps 745 mmHg 90%
22:00 +29°C° 1.2 mm 1 mps 745 mmHg 90%
23:00 +29°C° 1.2 mm 1 mps 745 mmHg 89%
Show more